Hazlehurst, GA

2:28 AM EST on February 11, 2016 (GMT -0500)
Hazlehurst

Weather History for KAZE - January, 2013

Change the Weather History Date:

Saturday, January 26, 2013

  Actual Average (KAMG) Record (KAMG)
Temperature  
Mean Temperature 53 °F 51 °F  
Max Temperature 67 °F 62 °F 83 °F (2012)
Min Temperature 39 °F 40 °F 22 °F (1955)
Degree Days  
Heating Degree Days 12 14  
Month to date heating degree days 382  
Since 1 July heating degree days 1022  
Cooling Degree Days 0 0  
Month to date cooling degree days 0  
Year to date cooling degree days 0  
Growing Degree Days 3 (Base 50)    
Moisture  
Dew Point 50 °F    
Average Humidity 81    
Maximum Humidity 99    
Minimum Humidity 52    
Precipitation  
Precipitation 0.00 in 0.14 in 2.01 in (1980)
Month to date precipitation 3.52  
Year to date precipitation 3.52  
Snow  
Snow 0.00 in 0.00 in 0.00 in ()
Month to date snowfall 0.0  
Since 1 July snowfall 0.1  
Snow Depth -    
Sea Level Pressure  
Sea Level Pressure 30.20 in    
Wind  
Wind Speed 3 mph (West)    
Max Wind Speed 9 mph    
Max Gust Speed -    
Visibility 10 miles    
Events      
T = Trace of Precipitation, MM = Missing Value Source: NWS Daily Summary

Daily Weather History Graph

Daily Weather History Graph

Search for Another Location

Airport or City:

Trip Planner

Search our weather history database for the weather conditions in past years. The results will help you decide how hot, cold, wet, or windy it might be!

Date:

Astronomy

Jan. 26, 2013 Rise Set
Actual Time 7:27 AM EST 5:59 PM EST
Civil Twilight 7:01 AM EST 6:25 PM EST
Nautical Twilight 6:31 AM EST 6:54 PM EST
Astronomical Twilight 6:02 AM EST 7:23 PM EST
Moon 5:50 PM EST (1/26) 6:46 AM EST (1/26)
Length of Visible Light 11h 24m
Length of Day
10h 32m
Full, 100% of the Moon is Illuminated
Jan 26
Full
Jan 26
Full
Feb 3
Last Quarter
Feb 10
New
Feb 17
First Quarter

Hourly Weather History & Observations

Time (EST) Temp. Dew Point Humidity Pressure Visibility Wind Dir Wind Speed Gust Speed Precip Events Conditions
12:15 AM 49.1 °F 47.3 °F 93% 30.17 in 10.0 mi Calm Calm - N/A   Clear
12:35 AM 49.1 °F 47.7 °F 95% 30.17 in 7.0 mi SSW 3.5 mph - N/A   Clear
12:55 AM 49.5 °F 48.0 °F 95% 30.17 in 10.0 mi SW 3.5 mph - N/A   Clear
1:15 AM 50.0 °F 48.4 °F 94% 30.17 in 10.0 mi SW 3.5 mph - N/A   Clear
1:35 AM 51.1 °F 49.3 °F 94% 30.17 in 10.0 mi SW 3.5 mph - N/A   Clear
1:55 AM 51.8 °F 50.0 °F 94% 30.16 in 10.0 mi SSW 3.5 mph - N/A   Clear
2:15 AM 52.3 °F 50.4 °F 93% 30.16 in 10.0 mi SW 3.5 mph - N/A   Clear
2:35 AM 52.7 °F 50.9 °F 94% 30.15 in 10.0 mi SW 4.6 mph - N/A   Clear
2:55 AM 53.1 °F 51.1 °F 93% 30.15 in 10.0 mi SW 5.8 mph - N/A   Clear
3:15 AM 53.8 °F 51.6 °F 92% 30.15 in 10.0 mi SW 5.8 mph - N/A   Clear
3:35 AM 54.1 °F 51.8 °F 92% 30.15 in 10.0 mi SW 4.6 mph - N/A   Clear
3:55 AM 54.0 °F 51.8 °F 92% 30.15 in 10.0 mi WSW 5.8 mph - N/A   Clear
4:15 AM 54.0 °F 52.0 °F 93% 30.15 in 10.0 mi WSW 4.6 mph - N/A   Clear
4:35 AM 53.6 °F 52.0 °F 94% 30.16 in 10.0 mi WSW 4.6 mph - N/A   Clear
4:55 AM 53.4 °F 51.8 °F 94% 30.15 in 10.0 mi SW 3.5 mph - N/A   Clear
5:15 AM 53.1 °F 52.0 °F 96% 30.15 in 10.0 mi WSW 4.6 mph - N/A   Mostly Cloudy
5:35 AM 53.8 °F 52.5 °F 95% 30.15 in 10.0 mi WSW 4.6 mph - N/A   Overcast
5:55 AM 54.0 °F 52.7 °F 95% 30.16 in 10.0 mi SW 4.6 mph - N/A   Overcast
6:15 AM 54.0 °F 52.7 °F 95% 30.16 in 10.0 mi SW 4.6 mph - N/A   Mostly Cloudy
6:35 AM 53.6 °F 52.7 °F 97% 30.16 in 10.0 mi SW 4.6 mph - N/A   Clear
7:15 AM 53.4 °F 52.9 °F 98% 30.17 in 10.0 mi SW 3.5 mph - N/A   Clear
7:35 AM 53.1 °F 52.9 °F 99% 30.18 in 10.0 mi WSW 4.6 mph - N/A   Scattered Clouds
7:55 AM 54.0 °F 53.6 °F 99% 30.18 in 10.0 mi SW 3.5 mph - N/A   Mostly Cloudy
8:15 AM 54.5 °F 53.8 °F 97% 30.19 in 10.0 mi SW 3.5 mph - N/A   Mostly Cloudy
8:35 AM 55.6 °F 54.5 °F 96% 30.19 in 10.0 mi WSW 3.5 mph - N/A   Mostly Cloudy
8:55 AM 56.7 °F 54.9 °F 94% 30.20 in 10.0 mi WSW 5.8 mph - N/A   Scattered Clouds
9:15 AM 57.6 °F 55.2 °F 92% 30.20 in 10.0 mi West 4.6 mph - N/A   Clear
9:35 AM 58.3 °F 55.4 °F 90% 30.21 in 10.0 mi Calm Calm - N/A   Clear
9:55 AM 59.2 °F 55.6 °F 88% 30.22 in 10.0 mi WNW 4.6 mph - N/A   Scattered Clouds
10:15 AM 59.7 °F 55.6 °F 86% 30.23 in 10.0 mi West 4.6 mph - N/A   Mostly Cloudy
10:35 AM 59.2 °F 55.6 °F 88% 30.23 in 10.0 mi NW 6.9 mph - N/A   Overcast
10:55 AM 59.4 °F 55.4 °F 87% 30.23 in 10.0 mi NW 4.6 mph - N/A   Overcast
11:15 AM 60.8 °F 55.6 °F 83% 30.23 in 10.0 mi NW 3.5 mph - N/A   Mostly Cloudy
11:35 AM 61.9 °F 55.8 °F 80% 30.22 in 10.0 mi NW 4.6 mph - N/A   Overcast
11:55 AM 62.2 °F 55.8 °F 79% 30.22 in 10.0 mi WNW 5.8 mph - N/A   Overcast
12:15 PM 62.8 °F 56.1 °F 79% 30.21 in 10.0 mi WNW 5.8 mph - N/A   Overcast
12:35 PM 62.8 °F 55.9 °F 78% 30.20 in 10.0 mi NW 4.6 mph - N/A   Overcast
12:55 PM 63.7 °F 56.3 °F 77% 30.19 in 10.0 mi West 4.6 mph - N/A   Overcast
1:15 PM 63.9 °F 56.3 °F 76% 30.19 in 10.0 mi NW 3.5 mph - N/A   Mostly Cloudy
1:35 PM 64.2 °F 56.1 °F 75% 30.19 in 10.0 mi WNW 5.8 mph - N/A   Mostly Cloudy
1:55 PM 64.4 °F 55.9 °F 74% 30.18 in 10.0 mi NW 5.8 mph - N/A   Overcast
2:15 PM 64.2 °F 55.6 °F 73% 30.18 in 10.0 mi West 3.5 mph - N/A   Overcast
2:35 PM 65.8 °F 55.8 °F 70% 30.18 in 10.0 mi West 9.2 mph - N/A   Overcast
2:55 PM 65.8 °F 55.2 °F 69% 30.18 in 10.0 mi Calm Calm - N/A   Scattered Clouds
3:15 PM 66.0 °F 55.0 °F 68% 30.17 in 10.0 mi West 4.6 mph - N/A   Clear
3:35 PM 66.0 °F 54.7 °F 67% 30.17 in 10.0 mi WNW 3.5 mph - N/A   Clear
3:55 PM 66.4 °F 54.5 °F 66% 30.17 in 10.0 mi West 3.5 mph - N/A   Clear
4:15 PM 65.7 °F 54.5 °F 67% 30.18 in 10.0 mi WSW 3.5 mph - N/A   Clear
4:35 PM 65.1 °F 54.5 °F 68% 30.18 in 10.0 mi WNW 4.6 mph - N/A   Clear
4:55 PM 65.1 °F 53.4 °F 66% 30.18 in 10.0 mi NW 5.8 mph - N/A   Clear
5:15 PM 64.4 °F 49.1 °F 58% 30.19 in 10.0 mi NNW 4.6 mph - N/A   Clear
5:35 PM 63.5 °F 46.0 °F 53% 30.19 in 10.0 mi Calm Calm - N/A   Clear
5:55 PM 61.7 °F 45.5 °F 55% 30.20 in 10.0 mi Calm Calm - N/A   Clear
6:15 PM 59.0 °F 45.0 °F 60% 30.20 in 10.0 mi Calm Calm - N/A   Clear
6:35 PM 57.4 °F 44.1 °F 61% 30.21 in 10.0 mi Calm Calm - N/A   Clear
6:55 PM 55.4 °F 44.4 °F 67% 30.22 in 10.0 mi Calm Calm - N/A   Clear
7:15 PM 55.6 °F 41.7 °F 60% 30.22 in 10.0 mi North 3.5 mph - N/A   Clear
7:35 PM 55.4 °F 37.9 °F 52% 30.22 in 10.0 mi Calm Calm - N/A   Clear
7:55 PM 52.9 °F 38.3 °F 58% 30.22 in 10.0 mi North 4.6 mph - N/A   Clear
8:15 PM 52.5 °F 38.1 °F 58% 30.23 in 10.0 mi North 3.5 mph - N/A   Clear
8:35 PM 52.0 °F 38.1 °F 59% 30.23 in 10.0 mi Calm Calm - N/A   Clear
8:55 PM 47.5 °F 41.9 °F 81% 30.24 in 10.0 mi Calm Calm - N/A   Clear
9:15 PM 45.1 °F 40.6 °F 84% 30.24 in 10.0 mi Calm Calm - N/A   Clear
9:35 PM 45.3 °F 38.8 °F 78% 30.24 in 10.0 mi Calm Calm - N/A   Clear
9:55 PM 43.9 °F 37.8 °F 79% 30.24 in 10.0 mi Calm Calm - N/A   Clear
10:15 PM 43.0 °F 39.4 °F 87% 30.25 in 10.0 mi Calm Calm - N/A   Clear
10:35 PM 42.6 °F 38.3 °F 85% 30.26 in 10.0 mi Calm Calm - N/A   Clear
10:55 PM 41.7 °F 36.1 °F 81% 30.27 in 10.0 mi Calm Calm - N/A   Clear
11:15 PM 40.6 °F 35.8 °F 83% 30.27 in 10.0 mi Calm Calm - N/A   Clear
11:35 PM 40.3 °F 35.8 °F 84% 30.27 in 10.0 mi Calm Calm - N/A   Clear
11:55 PM 39.4 °F 35.6 °F 86% 30.28 in 10.0 mi Calm Calm - N/A   Clear